Flag for Canada Weather past 2 weeks in Halifax, Nova Scotia, Canada

Now
57 °F

Passing clouds.


Feels Like: 55 °F
Forecast: 57 / 73 °F
Wind: 8 mph from Southwest

Location: Halifax International Airport

Current Time: Jul 26, 2014 at 6:42:25 AM

Latest Report: Jul 26, 2014 at 6:00 AM


Visibility: 12 mi

Pressure: 29.90 "Hg

Humidity: 88%

Dew point: 54 °F

Location of HalifaxLocation

Historic Weather in Halifax — Graph

°F

Halifax temperature yesterday

Maximum temperature yesterday: 73 °F (at 6:00 PM)
Minimum temperature yesterday: 63 °F (at 2:00 AM)
Average temperature yesterday: 66 °F

Past Weeks' High & Low Weather Summary

 TemperatureHumidityPressure
High82 °F (Jul 12, 3:00 PM)100% (Jul 11, 5:00 AM)30.28 "Hg (Jul 11, 5:00 AM)
Low57 °F (Jul 13, 6:00 AM)32% (Jul 12, 4:00 PM)29.75 "Hg (Jul 24, 7:00 PM)
Average67 °F79%30.03 "Hg
* Reported Jul 11 5:00 AM — Jul 26 5:00 AM, Halifax, Weather by CustomWeather, © 2014

Note: Actual official high and low records may vary slightly from our data, if they occured in-between our weather recording intervals... More about our weather records

Advertising

Halifax weather history for previous 24 hours

 ConditionsComfort  
Time TempWeatherWind HumidityBarometerVisibility
5:00 AM
Jul 26
57 °FPassing clouds.8 mph88%29.90 "Hg15 mi
4:00 AM61 °FClear.7 mph77%29.89 "Hg15 mi
3:00 AM59 °FClear.5 mph82%29.88 "Hg15 mi
2:00 AM59 °FClear.7 mph82%29.88 "Hg15 mi
1:00 AM63 °FClear.9 mph73%29.88 "Hg15 mi
12:00 AM63 °FClear.5 mph68%29.88 "Hg15 mi
11:00 PM
Jul 25
63 °FClear.6 mph73%29.88 "Hg15 mi
10:00 PM64 °FClear.6 mph73%29.87 "Hg15 mi
9:00 PM66 °FPassing clouds.7 mph68%29.85 "Hg15 mi
8:00 PM70 °FPassing clouds.10 mph57%29.84 "Hg15 mi
7:00 PM73 °FPassing clouds.9 mph53%29.82 "Hg15 mi
6:00 PM73 °FScattered clouds.9 mph57%29.81 "Hg15 mi
5:00 PM72 °FPartly sunny.12 mph65%29.80 "Hg15 mi
4:00 PM72 °FBroken clouds.12 mph65%29.80 "Hg15 mi
3:00 PM72 °FBroken clouds.6 mph69%29.81 "Hg15 mi
2:00 PM72 °FMore clouds than sun.8 mph69%29.80 "Hg15 mi
1:00 PM70 °FCloudy.9 mph73%29.81 "Hg15 mi
12:00 PM68 °FBroken clouds.7 mph73%29.82 "Hg15 mi
11:00 AM70 °FMostly cloudy.10 mph73%29.83 "Hg15 mi
10:55 AM68 °FMostly cloudy.10 mph78%29.82 "Hg15 mi
10:00 AM64 °FMostly cloudy.10 mph88%29.83 "Hg15 mi
9:06 AM63 °FMostly cloudy.10 mph94%29.83 "Hg15 mi
8:00 AM63 °FFog.12 mph94%29.82 "Hg6 mi
7:50 AM63 °FFog.9 mph94%29.81 "Hg5 mi
7:00 AM63 °FFog.9 mph94%29.81 "Hg2 mi
6:00 AM63 °FDrizzle. Fog.9 mph94%29.80 "Hg1 mi
Weather by CustomWeather, © 2014

See weather overviewHow to use our weather pages